Список аэропортов
Фактическая погода:

23 апреля, 12:30
Температура: +1°C (+0.3*)
Ветер: перем. 1 м/с
Давление: *751 мм
разорв. обл.
кучево-дождевые 540 м
Время (МСК)Темп. СВетерВлажностьДавлениеОблачностьОсадки
09:00-0Ю, 2 м/с91%1001 гПаоблачносл. снег
10:00+1Ю, 2 м/с90%1001 гПаоблачносл. дождь/снег
11:00+2Ю, 2 м/с86%1001 гПаоблачно
12:00+2Ю, 2 м/с86%1002 гПаоблачно
13:00+2Ю, 2 м/с84%1002 гПаоблачно
14:00+3Штиль 83%1002 гПаоблачно
15:00+3СВ, 2 м/с79%1002 гПаоблачно
16:00+3СВ, 3 м/с79%1003 гПаоблачно
17:00+2СВ, 4 м/с83%1002 гПаоблачно
18:00+2СВ, 4 м/с87%1003 гПаоблачно
19:00+1СВ, 5 м/с90%1003 гПаоблачно
20:00+1СВ, 5 м/с92%1002 гПаоблачно
21:000СВ, 4 м/с92%1002 гПаоблачно
22:000СВ, 4 м/с94%1002 гПаоблачносл. снег
23:000СВ, 4 м/с96%1002 гПаоблачносл. снег
24 апреля
00:000СВ, 4 м/с95%1001 гПаоблачносл. снег
01:000СВ, 5 м/с93%1001 гПаоблачносл. снег
02:000СВ, 5 м/с92%1001 гПаоблачносл. снег
03:00-0СВ, 5 м/с91%1000 гПаоблачносл. снег
04:00-1СВ, 4 м/с91%1000 гПаоблачносл. снег
05:00-1СВ, 4 м/с91%1001 гПаоблачносл. снег
06:00-0СВ, 4 м/с91%1001 гПаоблачноснег
07:00-0СВ, 3 м/с91%1001 гПаоблачноснег
08:000СВ, 2 м/с90%1002 гПаоблачноснег
09:000С, 2 м/с90%1002 гПаоблачносл. снег
10:000С, 2 м/с88%1003 гПаоблачносл. снег
11:00+1С, 2 м/с85%1004 гПаоблачносл. дождь/снег
12:00+1СЗ, 3 м/с83%1005 гПаоблачно
13:00+1СЗ, 3 м/с82%1006 гПаоблачно
14:00+1СЗ, 2 м/с82%1007 гПаоблачно
15:00+1С, 2 м/с81%1007 гПаоблачно
16:00+1С, 2 м/с81%1008 гПаоблачно
17:00+1С, 2 м/с83%1009 гПаоблачно
18:00+1С, 2 м/с85%1009 гПаоблачно
19:000СВ, 1 м/с88%1010 гПаоблачно
20:000Штиль 91%1011 гПаоблачно
21:000СВ, 1 м/с89%1011 гПаоблачно
22:00-0СВ, 2 м/с92%1011 гПас прояснениями
23:00-1СВ, 2 м/с94%1011 гПаоблачно
25 апреля
00:00-1СВ, 2 м/с94%1011 гПаоблачно
01:00-1СВ, 3 м/с93%1011 гПаоблачно
02:00-0СВ, 3 м/с93%1011 гПаоблачно
03:00-0СВ, 3 м/с93%1010 гПаоблачно
04:00-0СВ, 4 м/с93%1010 гПаоблачно
05:00-0СВ, 4 м/с92%1010 гПаоблачно
06:000СВ, 4 м/с90%1010 гПаоблачно
07:000СВ, 4 м/с88%1010 гПаоблачно
08:000СВ, 5 м/с87%1009 гПаоблачно
09:00+1СВ, 5 м/с86%1009 гПаоблачно